Skip Page Navigation
NASA JPL Caltech
NASA Logo - Jet Propulsion Laboratory + View the NASA Portal
+ Center for Near-Earth Object Studies
JPL Home Earth Solar System Stars & Galaxies Technology
JPL Solar System Dynamics
BODIES ORBITS EPHEMERIDES TOOLS PHYSICAL DATA DISCOVERY FAQ SITE MAP
JPL Small-Body Database Browser
Search: [ help ]  
123423 (2000 WV107)
Classification: Main-belt Asteroid          SPK-ID: 2123423
Ephemeris | Orbit Diagram | Orbital Elements | Mission Design | Physical Parameters | Discovery Circumstances ]

[ show orbit diagram ]
Orbital Elements at Epoch 2459000.5 (2020-May-31.0) TDB
Reference: JPL 23 (heliocentric ecliptic J2000)
 Element Value Uncertainty (1-sigma)   Units 
e .1407208422806061 8.2461e-08  
a 2.735590173229994 2.04e-08 au
q 2.35063561991852 2.1998e-07 au
i 8.106821611674849 5.3228e-06 deg
node 277.623564847149 4.2993e-05 deg
peri 60.89223371410797 4.8396e-05 deg
M 180.2602897966184 2.8273e-05 deg
tp 2459825.618863223353
(2022-Sep-03.11886322)
0.0001358 TDB
period 1652.627515779862
4.52
1.8486e-05
5.061e-08
d
yr
n .2178349304744081 2.4367e-09 deg/d
Q 3.120544726541468 2.3271e-08 au
  Orbit Determination Parameters
   # obs. used (total)      604  
   data-arc span      7119 days (19.49 yr)  
   first obs. used      2000-10-25  
   last obs. used      2020-04-22  
   planetary ephem.      DE431  
   SB-pert. ephem.      SB431-N16  
   condition code      0  
   norm. resid. RMS      .52763  
   source      ORB  
   producer      Otto Matic  
   solution date      2020-May-20 21:00:25  

Additional Information
 Earth MOID = 1.35378 au 
 Jupiter MOID = 2.26639 au 
 T_jup = 3.323 
[ show covariance matrix ]

Ephemeris | Orbit Diagram | Orbital Elements | Mission Design | Physical Parameters | Discovery Circumstances ]

Physical Parameter Table
Parameter Symbol Value Units Sigma Reference Notes
absolute magnitude H 15.2   n/a MPO412822  
rotation period rot_per 2.839 h n/a LCDB (Rev. 2019-August); Warner et al., 2009 Result based on less than full coverage, so that the period may be wrong by 30 percent or so.
Published Reference List:
[Waszczak, A.; Chang, C.-K.; Ofeck, E.O.; Laher, F.; et al. (2015) Astron. J. 150, A75.]

123423 (2000 WV107)          Discovered 2000-Nov-20 by LINEAR at Socorro
Reference: 20060314/Numbers.arcLast Updated: 2006-03-23

Alternate Designations
 2000 WV107 = 2004 RZ177 
Ephemeris | Orbit Diagram | Orbital Elements | Mission Design | Physical Parameters | Discovery Circumstances ]
ABOUT SSD CREDITS/AWARDS PRIVACY/COPYRIGHT GLOSSARY LINKS
FirstGov 2020-Dec-03 12:07 UT
(server date/time)  
NASA Home Page
Site Manager:   Ryan S. Park
Webmaster  Alan B. Chamberlin